SCP
0 -0 -0 0 -0 -0 0 0 -0 0 0 0 -0 -0 0 0 -0 0 -0 0 -0 -0 0 0 -0 -0 -0 -0 -0 -0 -0 -0 -0 -0 -0 -0 -0 -0 -0 -0 -0 -0 -0 -0 -0 -0 0 -0 -0
0 0 0 0 -0 -0 -0 0 0 -0 -0 -0 0 -0 -0 0 0 -0 0 -0 -0 -0 0 0 -0 -0 -0 -0 -0 -0 -0 -0 -0 -0 -0 -0 -0 -0 -0 -0 -0 -0 -0 -0 -0 0 0 0 -0
0 0 0 -0 0 0 0 0 0 -0 0 -0 0 -0 0 0 -0 -0 0 -0 -0 -0 0 0 -0 -0 -0 -0 -0 -0 -0 -0 -0 -0 -0 -0 -0 -0 -0 -0 -0 -0 -0 0 0 -0 0 0 -0
0 -0 -0 -0 -0 0 0 0 -0 0 -0 0 0 -0 0 0 -0 0 -0 -0 -0 -0 -0 -0 -0 -0 -0 -0 -0 -0 -0 -0 -0 -0 -0 -0 -0 -0 -0 -0 -0 -0 0 0 -0 0 -0 0 -0
-0 0 0 0 0 -0 -0 -0 0 -0 -0 -0 -0 0 -0 0 -0 -0 -0 -0 -0 -0 -0 -0 -0 -0 -0 -0 -0 -0 -0 -0 -0 -0 -0 -0 -0 -0 -0 -0 -0 -0 0 0 0 -0 0 0 -0
0 0 0 -0 -0 -0 -0 -0 0 -0 0 -0 0 -0 -0 -0 -0 -0 -0 -0 -0 -0 -0 -0 -0 -0 -0 -0 -0 -0 -0 -0 -0 -0 -0 -0 -0 -0 -0 -0 -0 -0 0 0 0 0 0 0 -0
-0 0 -0 0 -0 -0 -0 -0 0 0 0 0 0 0 -0 -0 -0 -0 -0 -0 -0 -0 -0 -0 -0 -0 -0 -0 -0 -0 -0 -0 -0 -0 -0 -0 0 0 -0 -0 -0 -0 0 0 0 0 0 -0 -0
-0 0 -0 -0 -0 -0 0 -0 -0 0 -0 -0 -0 -0 -0 -0 -0 -0 -0 -0 -0 -0 -0 -0 -0 -0 -0 -0 -0 -0 -0 -0 -0 -0 -0 0 0 0 -0 -0 -0 0 -0 -0 -0 0 0 -0 -0
-0 0 0 0 -0 0 -0 -0 0 0 0 -0 0 0 -0 -0 -0 -0 -0 -0 -0 -0 -0 -0 -0 -0 -0 -0 -0 -0 -0 -0 -0 -0 -0 -0 0 0 0 -0 0 -0 0 0 0 -0 -0 -0 -0
-0 -0 0 0 -0 0 -0 -0 -0 0 0 0 0 -0 -0 -0 -0 -0 -0 -0 -0 -0 -0 -0 -0 -0 -0 -0 -0 -0 -0 -0 0 0 0 0 0 0 0 0 -0 0 0 0 0 0 -0 -0 0
-0 -0 0 0 -0 -0 -0 -0 0 -0 0 0 -0 -0 -1 -0 -0 -0 -0 -0 -0 -0 -0 -0 -0 -0 -0 -0 0 0 0 0 -0 -0 -0 -0 -0 0 0 0 -0 -0 0 0 -0 -0 -0 -0 0
-0 0 0 -0 -0 -0 -0 -0 0 -0 0 0 -0 -1 -1 -1 -0 -0 -0 -0 -0 -0 -0 -0 -0 0 0 0 0 0 0 0 -0 -0 -0 -0 0 0 0 0 -0 -0 -0 0 0 0 -0 -0 -0
-0 -0 -0 -0 -0 -0 -0 -0 0 0 0 -0 -1 -1 -1 -0 -0 -0 0 0 0 -0 0 0 0 0 0 0 0 0 0 0 0 -0 -0 -0 0 0 0 0 -0 -0 0 0 0 0 0 0 -0
0 -0 0 -0 -0 -0 -0 0 0 0 -0 -0 -0 -0 -0 -0 -0 -0 -0 -0 -0 0 0 0 0 0 0 0 0 0 0 0 0 0 0 -0 0 0 0 -0 -0 -0 0 0 0 0 0 0 0
0 0 0 0 -0 -0 -0 0 0 0 -0 -0 -0 -0 -0 -0 -0 -0 -0 -0 0 0 0 0 0 0 0 0 0 0 0 0 0 0 0 0 0 0 0 0 -0 0 0 0 0 0 -0 0 0
0 0 -0 0 -0 -0 -0 0 0 0 -0 0 0 0 0 0 0 0 0 0 0 0 0 -0 0 0 0 -0 -0 0 0 0 0 0 0 0 0 0 0 0 0 0 -0 0 0 0 -0 0 0
0 0 -0 0 -0 -0 0 0 0 0 0 0 0 0 0 0 0 0 0 0 0 -0 0 0 -0 0 0 0 -0 0 -0 0 0 0 0 0 0 0 0 0 0 0 0 0 0 -0 -0 0 0
0 0 0 0 0 -0 0 0 0 -0 0 0 0 0 0 0 0 0 0 0 0 0 -0 0 -0 -0 -0 0 -0 -0 -0 0 0 0 0 0 0 0 0 0 0 0 0 0 0 0 0 0 0
0 0 0 0 0 0 -0 -0 0 0 0 0 0 -0 0 0 0 0 0 0 -0 0 0 -0 -0 -0 -0 -0 0 0 0 0 0 0 0 0 0 0 0 0 0 0 0 0 0 0 0 -0 -0
0 0 0 -0 0 -0 -0 -0 -0 -0 0 0 0 -0 -0 -0 0 0 0 0 0 0 0 -0 -0 -0 -0 0 0 0 0 0 0 0 0 0 0 0 0 0 0 0 0 -0 0 0 0 -0 0
0 0 0 -0 -0 -0 -0 0 0 0 0 0 0 0 -0 -0 -0 -0 0 -0 0 0 0 -0 -0 -0 -0 -0 -0 0 0 0 0 0 0 0 0 0 0 0 0 0 0 -0 0 0 -0 -0 -0
0 0 0 0 -0 0 0 0 0 0 0 0 0 0 0 0 -0 0 0 0 -0 0 -0 -0 0 -0 -0 0 -0 0 0 0 0 0 0 -0 0 0 0 0 0 -0 0 0 -0 -0 -0 0 0
0 0 0 0 0 0 0 0 0 0 0 0 0 0 0 0 -0 -0 -0 0 0 0 0 -0 0 -0 -0 -0 0 0 0 0 -0 -0 -0 0 0 0 0 0 0 0 0 -0 -0 -0 -0 -0 0
0 0 0 0 0 0 0 0 -0 0 -0 0 0 0 -0 -0 0 -0 -0 0 0 0 0 0 0 0 0 0 -0 0 -0 0 0 0 0 0 0 0 0 0 0 0 -0 -0 -0 -0 0 -0 -0
0 0 0 0 0 0 0 0 -0 0 0 0 0 0 -0 -0 -0 -0 0 0 0 -0 -0 0 0 0 0 0 0 -0 -0 -0 0 0 0 0 0 0 0 0 0 0 0 -0 -0 -0 -0 -0 -0
0 0 0 0 0 0 0 0 -0 0 0 0 0 -0 -0 0 -0 0 0 0 -0 0 0 0 0 0 0 0 0 0 -0 0 0 -0 0 0 0 0 0 0 0 0 0 -0 -0 -0 -0 0 -0
0 0 0 0 0 0 0 0 0 0 0 -0 -0 -0 0 0 0 0 0 -0 -0 -0 0 0 0 0 0 0 0 0 0 -0 0 -0 0 0 0 0 0 0 0 0 0 0 0 -0 -0 -0 -0
0 -0 0 0 0 0 0 0 0 0 0 -0 0 0 0 0 -0 0 -0 -0 -0 0 0 0 0 0 0 0 0 0 0 -0 -0 -0 -0 -0 -0 -0 -0 -0 -0 -0 0 0 0 0 0 0 0
0 0 0 0 0 0 0 -0 0 0 -0 0 0 0 0 -0 -0 -0 -0 -0 -0 -0 0 0 0 0 0 0 0 0 -0 -0 -0 -0 -0 -0 -0 -0 0 0 0 0 0 0 0 0 0 0 0
0 0 0 0 0 0 0 0 0 0 0 0 -0 0 0 -0 -0 -0 -0 -0 -0 -0 -0 0 0 0 0 0 0 0 0 0 0 0 -0 0 -0 -0 -0 0 0 0 0 0 0 0 -0 0 0
Wind_Speed_500mb
10 13 10 3 9 10 5 3 10 12 9 1 35 9 11 13 3 5 39 58 59 61 60 56 57 55 54 52 50 50 50 50 49 48 45 42 40 38 33 31 29 26 25 26 28 25 21 22 25
8 10 7 4 10 7 4 4 7 10 9 19 15 14 11 7 7 36 69 56 60 62 63 62 60 57 55 53 52 50 49 47 45 44 44 42 38 36 33 32 30 28 26 28 29 25 20 23 23
5 7 5 7 5 6 4 12 10 14 7 12 1 17 7 6 28 68 57 64 64 62 62 62 59 55 54 54 52 49 45 44 41 39 37 37 36 34 31 30 28 26 26 28 28 29 23 27 24
4 4 9 9 8 5 5 3 13 11 11 9 13 12 14 9 62 43 60 64 62 65 61 61 57 53 52 51 48 46 43 39 36 33 31 32 32 31 28 26 23 23 23 25 24 24 20 20 22
14 4 9 10 4 2 5 24 20 11 2 5 10 7 24 39 34 47 56 62 62 66 61 60 56 52 49 46 42 40 38 36 32 30 28 28 27 25 23 20 18 17 18 18 17 20 18 16 14
9 5 8 8 6 2 6 25 18 3 11 20 28 18 7 26 45 47 57 60 60 63 62 59 56 52 50 47 41 34 31 29 28 25 25 24 22 19 18 16 14 12 14 12 12 13 15 16 15
8 7 5 5 9 10 6 25 8 11 8 10 31 8 16 46 45 48 60 59 60 60 58 57 56 53 49 42 35 33 29 26 23 22 20 19 16 12 9 10 11 10 9 9 7 6 10 14 16
6 6 4 6 20 10 17 17 24 20 9 14 27 11 17 58 55 53 59 57 57 57 55 54 53 51 48 42 38 35 31 27 25 21 19 17 15 7 7 9 12 12 9 6 4 6 9 14 18
2 6 6 10 13 9 31 18 30 14 9 5 29 19 39 68 61 56 61 59 59 56 53 52 52 49 46 41 35 32 29 24 22 18 19 18 15 7 12 16 17 15 11 11 10 11 9 11 16
7 3 8 10 14 20 43 32 32 15 18 9 23 28 58 69 67 64 67 67 67 64 60 54 51 48 46 41 36 33 30 25 23 21 14 17 18 17 14 18 26 22 18 15 15 15 13 14 14
13 9 12 15 22 35 34 23 21 18 7 27 54 68 72 76 69 65 65 64 65 60 60 59 54 48 47 41 36 30 28 24 24 24 19 20 19 20 19 22 28 26 21 15 13 14 11 8 9
5 33 23 17 28 27 21 22 18 27 7 41 57 72 84 79 75 72 65 62 58 57 58 57 55 51 46 40 33 25 24 22 21 20 22 22 20 20 17 16 26 25 22 17 12 13 10 8 9
14 14 22 8 43 38 29 17 10 4 25 51 63 71 78 79 76 73 68 54 54 57 56 59 57 53 47 40 33 27 24 19 16 22 18 16 14 12 15 15 26 24 17 14 10 13 12 12 10
17 18 13 24 32 37 22 14 1 9 52 57 72 66 71 76 75 75 69 54 49 57 55 58 55 50 45 40 34 27 23 17 18 20 18 16 15 14 13 16 23 22 19 17 13 13 10 13 14
29 6 7 6 17 12 39 7 2 26 54 67 60 65 66 69 68 71 66 49 44 57 49 49 47 46 46 41 35 30 21 21 20 17 18 16 13 12 13 15 20 20 19 17 14 16 14 13 9
11 9 6 6 15 24 12 10 9 45 59 50 55 53 58 69 65 60 60 55 49 59 51 42 43 44 44 40 36 26 22 21 22 22 25 20 7 12 15 16 18 23 20 16 17 12 10 9 5
12 1 7 16 12 17 9 7 12 46 48 42 49 51 54 61 65 59 64 57 51 61 58 44 46 48 43 39 34 28 26 27 25 28 30 22 13 15 14 16 17 20 23 13 14 8 10 11 2
5 8 10 15 4 8 9 5 17 39 36 36 39 45 39 47 54 56 49 45 49 43 54 35 43 55 49 43 37 32 34 35 32 31 30 27 19 16 18 16 20 20 26 16 14 8 8 7 3
8 3 17 15 7 6 8 14 18 25 18 23 27 40 38 26 32 43 38 39 38 44 49 41 45 47 47 46 45 43 43 37 35 32 29 27 21 18 19 20 20 23 30 24 20 12 6 6 7
7 9 21 10 10 8 9 25 14 14 6 20 29 29 21 23 35 39 47 38 32 46 47 35 37 44 46 43 47 43 35 34 33 31 28 21 20 17 23 20 22 22 27 26 25 16 8 4 5
16 8 9 13 7 8 16 10 10 6 12 19 22 22 22 29 36 42 45 42 35 45 41 36 40 47 43 42 40 41 39 35 33 28 16 15 17 17 20 19 25 23 26 29 27 20 14 11 8
14 12 19 19 8 8 7 7 8 7 7 13 28 29 30 31 33 39 42 42 44 39 39 37 36 48 48 47 47 42 36 32 25 24 18 16 18 17 12 21 26 26 26 27 29 28 21 16 12
21 11 15 8 10 7 5 11 11 5 14 17 28 33 34 36 34 39 38 36 35 37 36 34 40 37 38 40 42 36 35 29 23 21 19 18 16 18 18 20 22 29 28 31 29 33 27 22 17
21 5 12 9 8 5 6 9 9 13 19 11 18 37 40 38 37 29 28 31 33 33 38 41 38 36 36 32 32 33 31 23 24 19 20 17 19 18 18 21 22 20 25 30 30 30 34 29 24
8 11 7 7 8 9 4 4 16 12 8 16 33 46 43 38 39 37 32 31 32 41 40 37 36 36 32 29 29 29 23 22 20 16 16 13 12 9 11 16 15 19 23 28 31 33 34 38 29
13 16 11 9 6 6 6 9 6 9 24 25 33 53 45 45 43 41 34 31 32 30 30 30 32 32 31 26 24 23 18 15 13 14 12 13 14 10 11 11 11 13 19 23 29 32 32 35 34
5 5 6 15 7 6 5 12 18 15 18 31 39 41 58 54 52 51 45 38 33 29 29 27 24 24 27 26 22 20 18 21 17 13 13 15 17 13 12 10 9 9 15 17 22 26 31 33 35
10 12 6 6 8 7 8 9 12 12 16 16 18 49 67 64 60 55 49 46 41 32 28 27 21 19 21 23 22 17 18 19 15 13 16 16 13 11 9 15 11 8 8 14 18 19 18 25 27
5 3 10 11 9 11 4 12 15 22 20 19 21 52 74 71 65 63 50 49 41 35 32 27 22 15 20 23 21 18 17 16 15 14 14 14 17 16 13 10 12 13 14 13 16 18 17 19 24
8 17 12 10 11 3 8 14 8 17 21 39 41 61 68 70 70 68 60 47 50 44 36 30 28 26 15 16 22 22 22 20 19 17 13 13 16 17 17 14 12 15 15 17 18 19 21 23 25
Wind_Direction_500mb
346 340 338 15 52 69 158 40 142 305 351 44 156 209 107 39 19 197 146 159 161 158 156 157 156 154 154 150 146 141 139 137 136 136 138 139 139 137 136 132 130 127 122 118 110 110 113 120 123
352 3 21 65 82 78 217 256 1 316 358 70 63 98 46 85 106 139 149 160 162 161 158 159 158 157 154 150 147 145 143 141 142 141 142 142 139 137 135 130 129 129 127 117 111 119 118 117 114
343 31 23 73 70 89 35 39 32 335 254 347 140 73 54 103 138 143 153 160 163 163 161 161 159 157 152 149 148 147 147 145 144 144 144 141 139 136 135 131 131 133 129 129 131 144 145 129 129
330 24 64 72 60 25 16 38 168 245 271 305 113 80 70 279 140 148 154 164 166 163 163 164 161 160 155 152 151 150 149 147 147 146 143 141 140 139 136 136 137 135 131 140 149 159 161 145 152
354 48 56 77 60 350 123 143 194 215 332 6 48 69 104 146 147 153 159 168 168 164 166 167 167 165 160 159 158 159 158 157 154 151 148 148 146 144 140 141 139 136 140 152 161 166 173 174 169
1 57 53 65 78 226 187 180 205 142 54 100 106 106 96 185 156 157 163 168 170 167 168 170 172 172 169 167 166 167 168 166 162 160 159 156 152 150 147 147 148 150 145 155 166 183 197 187 181
132 67 89 57 31 80 149 153 219 153 174 139 147 77 138 169 165 158 166 169 173 172 171 173 177 179 178 179 182 182 179 172 172 170 170 163 158 154 162 164 169 165 157 158 170 205 220 203 195
322 92 106 187 175 186 204 202 214 189 200 135 177 153 167 172 167 167 172 172 176 177 177 177 179 184 188 191 190 186 188 182 182 181 185 182 175 214 212 206 204 196 189 208 195 228 235 209 197
145 25 145 191 153 201 199 171 175 185 182 174 181 191 179 165 167 166 169 174 178 181 184 184 184 186 188 188 185 186 186 194 198 194 197 226 236 244 257 236 226 226 240 266 260 246 245 228 205
141 193 221 163 165 183 174 170 170 162 165 225 210 165 161 169 172 165 171 177 181 181 184 188 190 189 189 188 188 192 200 202 207 207 216 235 243 260 271 253 234 239 258 267 269 237 234 223 200
194 212 228 178 165 182 177 165 159 158 200 207 167 155 172 178 178 175 178 183 184 184 188 190 191 193 195 196 199 202 207 210 217 222 233 247 264 266 268 268 231 233 259 261 265 234 221 229 205
183 236 252 141 167 156 159 149 168 193 235 194 177 173 173 183 187 187 188 191 191 192 197 195 195 197 202 202 206 214 216 217 224 235 246 257 267 263 265 243 215 224 247 256 242 232 236 229 232
178 213 243 151 181 171 156 144 173 166 146 169 161 170 177 187 195 193 192 191 205 202 203 201 201 201 205 206 211 220 222 223 231 241 252 242 263 282 261 229 213 224 243 240 225 224 249 259 249
313 251 197 232 165 182 129 141 140 145 150 147 163 168 181 191 194 191 198 196 208 204 207 206 206 207 212 215 216 217 220 237 239 240 244 247 263 272 258 222 215 226 233 239 234 251 289 297 269
308 335 60 267 157 124 112 37 260 165 159 163 163 178 185 195 198 204 207 195 221 205 203 203 211 215 218 225 221 219 233 245 248 252 240 241 242 255 245 230 219 216 228 227 245 257 294 290 281
354 48 20 267 137 165 115 228 242 167 165 163 176 180 189 201 207 209 215 215 211 204 201 199 205 215 212 213 210 221 234 252 260 259 250 250 248 259 248 229 228 221 220 231 243 275 288 339 292
4 59 278 312 180 151 171 220 199 174 174 166 183 191 198 201 204 211 217 216 214 202 203 197 207 211 214 223 223 233 243 254 262 259 255 265 250 264 249 225 215 214 210 220 232 271 292 321 292
6 344 347 280 221 51 89 154 169 186 176 172 186 196 202 210 211 217 216 216 215 215 205 192 219 210 213 225 234 241 247 249 253 253 258 261 252 262 251 240 220 217 212 216 226 265 271 332 313
276 287 311 264 64 113 150 168 178 186 144 148 187 214 225 232 223 222 202 196 213 207 211 218 213 206 214 220 229 240 249 251 258 258 263 256 259 252 230 252 226 219 212 226 224 254 267 295 301
298 311 289 301 236 134 113 49 73 128 150 176 197 211 219 213 219 220 201 199 214 207 203 213 207 220 215 222 234 245 254 254 258 261 265 267 257 241 231 251 224 213 215 219 225 232 234 244 240
287 233 237 210 75 47 108 22 17 15 138 192 213 230 224 214 211 203 195 209 198 197 200 206 212 210 215 224 234 237 245 251 253 256 254 250 241 253 248 242 225 215 219 222 222 223 220 229 237
282 233 246 244 112 203 70 223 298 281 223 203 198 200 197 200 199 194 194 195 195 205 206 205 219 218 225 231 230 239 248 257 268 270 257 248 234 245 248 227 224 230 225 220 221 223 220 236 249
246 309 241 239 116 72 29 96 267 175 226 223 211 200 193 188 187 194 194 195 198 204 197 205 208 209 212 214 224 240 248 252 256 261 275 276 270 262 246 237 234 231 232 223 221 221 223 232 244
259 212 34 56 106 84 205 136 255 194 215 204 211 213 195 186 192 180 195 206 209 206 209 205 209 212 211 216 226 236 243 252 256 269 283 283 274 268 261 248 244 240 232 228 225 225 227 233 243
128 57 347 1 14 212 350 49 236 202 188 196 198 211 195 185 194 185 191 197 201 210 208 213 219 217 217 219 227 230 241 248 261 268 282 286 286 286 260 246 241 244 240 233 228 231 231 234 240
200 164 150 201 195 244 45 240 236 197 188 199 195 212 200 188 198 187 175 179 189 196 202 205 208 208 209 209 210 215 228 241 255 267 273 282 274 268 254 256 247 239 230 231 230 233 236 232 234
242 197 194 102 40 78 250 292 302 175 195 200 195 210 197 195 198 197 180 178 183 188 193 192 189 196 204 210 213 225 242 254 258 262 276 280 265 267 241 238 236 225 220 223 233 236 238 239 237
168 163 89 5 127 230 282 273 238 244 190 180 214 185 189 194 197 203 189 189 193 194 195 202 199 210 211 215 218 237 252 258 267 269 272 265 265 271 266 252 231 231 217 214 222 229 231 235 232
347 336 45 116 125 167 211 261 211 209 191 171 169 171 182 191 198 200 185 189 184 186 184 202 206 211 215 223 224 227 246 263 274 269 277 266 270 276 267 248 237 245 247 248 244 239 236 242 241
206 208 154 134 228 150 156 271 217 204 174 167 171 173 185 192 199 195 185 182 190 193 192 198 210 215 213 204 213 234 244 246 256 259 262 272 275 270 270 259 248 247 252 254 260 260 254 252 253
Wind_Speed_850mb
10 13 10 3 9 10 5 3 10 12 9 1 35 9 11 13 3 5 39 58 59 61 60 56 57 55 54 52 50 50 50 50 49 48 45 42 40 38 33 31 29 26 25 26 28 25 21 22 25
8 10 7 4 10 7 4 4 7 10 9 19 15 14 11 7 7 36 69 56 60 62 63 62 60 57 55 53 52 50 49 47 45 44 44 42 38 36 33 32 30 28 26 28 29 25 20 23 23
5 7 5 7 5 6 4 12 10 14 7 12 1 17 7 6 28 68 57 64 64 62 62 62 59 55 54 54 52 49 45 44 41 39 37 37 36 34 31 30 28 26 26 28 28 29 23 27 24
4 4 9 9 8 5 5 3 13 11 11 9 13 12 14 9 62 43 60 64 62 65 61 61 57 53 52 51 48 46 43 39 36 33 31 32 32 31 28 26 23 23 23 25 24 24 20 20 22
14 4 9 10 4 2 5 24 20 11 2 5 10 7 24 39 34 47 56 62 62 66 61 60 56 52 49 46 42 40 38 36 32 30 28 28 27 25 23 20 18 17 18 18 17 20 18 16 14
9 5 8 8 6 2 6 25 18 3 11 20 28 18 7 26 45 47 57 60 60 63 62 59 56 52 50 47 41 34 31 29 28 25 25 24 22 19 18 16 14 12 14 12 12 13 15 16 15
8 7 5 5 9 10 6 25 8 11 8 10 31 8 16 46 45 48 60 59 60 60 58 57 56 53 49 42 35 33 29 26 23 22 20 19 16 12 9 10 11 10 9 9 7 6 10 14 16
6 6 4 6 20 10 17 17 24 20 9 14 27 11 17 58 55 53 59 57 57 57 55 54 53 51 48 42 38 35 31 27 25 21 19 17 15 7 7 9 12 12 9 6 4 6 9 14 18
2 6 6 10 13 9 31 18 30 14 9 5 29 19 39 68 61 56 61 59 59 56 53 52 52 49 46 41 35 32 29 24 22 18 19 18 15 7 12 16 17 15 11 11 10 11 9 11 16
7 3 8 10 14 20 43 32 32 15 18 9 23 28 58 69 67 64 67 67 67 64 60 54 51 48 46 41 36 33 30 25 23 21 14 17 18 17 14 18 26 22 18 15 15 15 13 14 14
13 9 12 15 22 35 34 23 21 18 7 27 54 68 72 76 69 65 65 64 65 60 60 59 54 48 47 41 36 30 28 24 24 24 19 20 19 20 19 22 28 26 21 15 13 14 11 8 9
5 33 23 17 28 27 21 22 18 27 7 41 57 72 84 79 75 72 65 62 58 57 58 57 55 51 46 40 33 25 24 22 21 20 22 22 20 20 17 16 26 25 22 17 12 13 10 8 9
14 14 22 8 43 38 29 17 10 4 25 51 63 71 78 79 76 73 68 54 54 57 56 59 57 53 47 40 33 27 24 19 16 22 18 16 14 12 15 15 26 24 17 14 10 13 12 12 10
17 18 13 24 32 37 22 14 1 9 52 57 72 66 71 76 75 75 69 54 49 57 55 58 55 50 45 40 34 27 23 17 18 20 18 16 15 14 13 16 23 22 19 17 13 13 10 13 14
29 6 7 6 17 12 39 7 2 26 54 67 60 65 66 69 68 71 66 49 44 57 49 49 47 46 46 41 35 30 21 21 20 17 18 16 13 12 13 15 20 20 19 17 14 16 14 13 9
11 9 6 6 15 24 12 10 9 45 59 50 55 53 58 69 65 60 60 55 49 59 51 42 43 44 44 40 36 26 22 21 22 22 25 20 7 12 15 16 18 23 20 16 17 12 10 9 5
12 1 7 16 12 17 9 7 12 46 48 42 49 51 54 61 65 59 64 57 51 61 58 44 46 48 43 39 34 28 26 27 25 28 30 22 13 15 14 16 17 20 23 13 14 8 10 11 2
5 8 10 15 4 8 9 5 17 39 36 36 39 45 39 47 54 56 49 45 49 43 54 35 43 55 49 43 37 32 34 35 32 31 30 27 19 16 18 16 20 20 26 16 14 8 8 7 3
8 3 17 15 7 6 8 14 18 25 18 23 27 40 38 26 32 43 38 39 38 44 49 41 45 47 47 46 45 43 43 37 35 32 29 27 21 18 19 20 20 23 30 24 20 12 6 6 7
7 9 21 10 10 8 9 25 14 14 6 20 29 29 21 23 35 39 47 38 32 46 47 35 37 44 46 43 47 43 35 34 33 31 28 21 20 17 23 20 22 22 27 26 25 16 8 4 5
16 8 9 13 7 8 16 10 10 6 12 19 22 22 22 29 36 42 45 42 35 45 41 36 40 47 43 42 40 41 39 35 33 28 16 15 17 17 20 19 25 23 26 29 27 20 14 11 8
14 12 19 19 8 8 7 7 8 7 7 13 28 29 30 31 33 39 42 42 44 39 39 37 36 48 48 47 47 42 36 32 25 24 18 16 18 17 12 21 26 26 26 27 29 28 21 16 12
21 11 15 8 10 7 5 11 11 5 14 17 28 33 34 36 34 39 38 36 35 37 36 34 40 37 38 40 42 36 35 29 23 21 19 18 16 18 18 20 22 29 28 31 29 33 27 22 17
21 5 12 9 8 5 6 9 9 13 19 11 18 37 40 38 37 29 28 31 33 33 38 41 38 36 36 32 32 33 31 23 24 19 20 17 19 18 18 21 22 20 25 30 30 30 34 29 24
8 11 7 7 8 9 4 4 16 12 8 16 33 46 43 38 39 37 32 31 32 41 40 37 36 36 32 29 29 29 23 22 20 16 16 13 12 9 11 16 15 19 23 28 31 33 34 38 29
13 16 11 9 6 6 6 9 6 9 24 25 33 53 45 45 43 41 34 31 32 30 30 30 32 32 31 26 24 23 18 15 13 14 12 13 14 10 11 11 11 13 19 23 29 32 32 35 34
5 5 6 15 7 6 5 12 18 15 18 31 39 41 58 54 52 51 45 38 33 29 29 27 24 24 27 26 22 20 18 21 17 13 13 15 17 13 12 10 9 9 15 17 22 26 31 33 35
10 12 6 6 8 7 8 9 12 12 16 16 18 49 67 64 60 55 49 46 41 32 28 27 21 19 21 23 22 17 18 19 15 13 16 16 13 11 9 15 11 8 8 14 18 19 18 25 27
5 3 10 11 9 11 4 12 15 22 20 19 21 52 74 71 65 63 50 49 41 35 32 27 22 15 20 23 21 18 17 16 15 14 14 14 17 16 13 10 12 13 14 13 16 18 17 19 24
8 17 12 10 11 3 8 14 8 17 21 39 41 61 68 70 70 68 60 47 50 44 36 30 28 26 15 16 22 22 22 20 19 17 13 13 16 17 17 14 12 15 15 17 18 19 21 23 25
Wind_Direction_850mb
346 340 338 15 52 69 158 40 142 305 351 44 156 209 107 39 19 197 146 159 161 158 156 157 156 154 154 150 146 141 139 137 136 136 138 139 139 137 136 132 130 127 122 118 110 110 113 120 123
352 3 21 65 82 78 217 256 1 316 358 70 63 98 46 85 106 139 149 160 162 161 158 159 158 157 154 150 147 145 143 141 142 141 142 142 139 137 135 130 129 129 127 117 111 119 118 117 114
343 31 23 73 70 89 35 39 32 335 254 347 140 73 54 103 138 143 153 160 163 163 161 161 159 157 152 149 148 147 147 145 144 144 144 141 139 136 135 131 131 133 129 129 131 144 145 129 129
330 24 64 72 60 25 16 38 168 245 271 305 113 80 70 279 140 148 154 164 166 163 163 164 161 160 155 152 151 150 149 147 147 146 143 141 140 139 136 136 137 135 131 140 149 159 161 145 152
354 48 56 77 60 350 123 143 194 215 332 6 48 69 104 146 147 153 159 168 168 164 166 167 167 165 160 159 158 159 158 157 154 151 148 148 146 144 140 141 139 136 140 152 161 166 173 174 169
1 57 53 65 78 226 187 180 205 142 54 100 106 106 96 185 156 157 163 168 170 167 168 170 172 172 169 167 166 167 168 166 162 160 159 156 152 150 147 147 148 150 145 155 166 183 197 187 181
132 67 89 57 31 80 149 153 219 153 174 139 147 77 138 169 165 158 166 169 173 172 171 173 177 179 178 179 182 182 179 172 172 170 170 163 158 154 162 164 169 165 157 158 170 205 220 203 195
322 92 106 187 175 186 204 202 214 189 200 135 177 153 167 172 167 167 172 172 176 177 177 177 179 184 188 191 190 186 188 182 182 181 185 182 175 214 212 206 204 196 189 208 195 228 235 209 197
145 25 145 191 153 201 199 171 175 185 182 174 181 191 179 165 167 166 169 174 178 181 184 184 184 186 188 188 185 186 186 194 198 194 197 226 236 244 257 236 226 226 240 266 260 246 245 228 205
141 193 221 163 165 183 174 170 170 162 165 225 210 165 161 169 172 165 171 177 181 181 184 188 190 189 189 188 188 192 200 202 207 207 216 235 243 260 271 253 234 239 258 267 269 237 234 223 200
194 212 228 178 165 182 177 165 159 158 200 207 167 155 172 178 178 175 178 183 184 184 188 190 191 193 195 196 199 202 207 210 217 222 233 247 264 266 268 268 231 233 259 261 265 234 221 229 205
183 236 252 141 167 156 159 149 168 193 235 194 177 173 173 183 187 187 188 191 191 192 197 195 195 197 202 202 206 214 216 217 224 235 246 257 267 263 265 243 215 224 247 256 242 232 236 229 232
178 213 243 151 181 171 156 144 173 166 146 169 161 170 177 187 195 193 192 191 205 202 203 201 201 201 205 206 211 220 222 223 231 241 252 242 263 282 261 229 213 224 243 240 225 224 249 259 249
313 251 197 232 165 182 129 141 140 145 150 147 163 168 181 191 194 191 198 196 208 204 207 206 206 207 212 215 216 217 220 237 239 240 244 247 263 272 258 222 215 226 233 239 234 251 289 297 269
308 335 60 267 157 124 112 37 260 165 159 163 163 178 185 195 198 204 207 195 221 205 203 203 211 215 218 225 221 219 233 245 248 252 240 241 242 255 245 230 219 216 228 227 245 257 294 290 281
354 48 20 267 137 165 115 228 242 167 165 163 176 180 189 201 207 209 215 215 211 204 201 199 205 215 212 213 210 221 234 252 260 259 250 250 248 259 248 229 228 221 220 231 243 275 288 339 292
4 59 278 312 180 151 171 220 199 174 174 166 183 191 198 201 204 211 217 216 214 202 203 197 207 211 214 223 223 233 243 254 262 259 255 265 250 264 249 225 215 214 210 220 232 271 292 321 292
6 344 347 280 221 51 89 154 169 186 176 172 186 196 202 210 211 217 216 216 215 215 205 192 219 210 213 225 234 241 247 249 253 253 258 261 252 262 251 240 220 217 212 216 226 265 271 332 313
276 287 311 264 64 113 150 168 178 186 144 148 187 214 225 232 223 222 202 196 213 207 211 218 213 206 214 220 229 240 249 251 258 258 263 256 259 252 230 252 226 219 212 226 224 254 267 295 301
298 311 289 301 236 134 113 49 73 128 150 176 197 211 219 213 219 220 201 199 214 207 203 213 207 220 215 222 234 245 254 254 258 261 265 267 257 241 231 251 224 213 215 219 225 232 234 244 240
287 233 237 210 75 47 108 22 17 15 138 192 213 230 224 214 211 203 195 209 198 197 200 206 212 210 215 224 234 237 245 251 253 256 254 250 241 253 248 242 225 215 219 222 222 223 220 229 237
282 233 246 244 112 203 70 223 298 281 223 203 198 200 197 200 199 194 194 195 195 205 206 205 219 218 225 231 230 239 248 257 268 270 257 248 234 245 248 227 224 230 225 220 221 223 220 236 249
246 309 241 239 116 72 29 96 267 175 226 223 211 200 193 188 187 194 194 195 198 204 197 205 208 209 212 214 224 240 248 252 256 261 275 276 270 262 246 237 234 231 232 223 221 221 223 232 244
259 212 34 56 106 84 205 136 255 194 215 204 211 213 195 186 192 180 195 206 209 206 209 205 209 212 211 216 226 236 243 252 256 269 283 283 274 268 261 248 244 240 232 228 225 225 227 233 243
128 57 347 1 14 212 350 49 236 202 188 196 198 211 195 185 194 185 191 197 201 210 208 213 219 217 217 219 227 230 241 248 261 268 282 286 286 286 260 246 241 244 240 233 228 231 231 234 240
200 164 150 201 195 244 45 240 236 197 188 199 195 212 200 188 198 187 175 179 189 196 202 205 208 208 209 209 210 215 228 241 255 267 273 282 274 268 254 256 247 239 230 231 230 233 236 232 234
242 197 194 102 40 78 250 292 302 175 195 200 195 210 197 195 198 197 180 178 183 188 193 192 189 196 204 210 213 225 242 254 258 262 276 280 265 267 241 238 236 225 220 223 233 236 238 239 237
168 163 89 5 127 230 282 273 238 244 190 180 214 185 189 194 197 203 189 189 193 194 195 202 199 210 211 215 218 237 252 258 267 269 272 265 265 271 266 252 231 231 217 214 222 229 231 235 232
347 336 45 116 125 167 211 261 211 209 191 171 169 171 182 191 198 200 185 189 184 186 184 202 206 211 215 223 224 227 246 263 274 269 277 266 270 276 267 248 237 245 247 248 244 239 236 242 241
206 208 154 134 228 150 156 271 217 204 174 167 171 173 185 192 199 195 185 182 190 193 192 198 210 215 213 204 213 234 244 246 256 259 262 272 275 270 270 259 248 247 252 254 260 260 254 252 253